sat.trackr.live / text

‹ back to catalog

STARLINK-32481

NORAD 62320 · 2024-239V

PAYLOAD ACTIVE UNKNOWN

§ Identity

Operator
Country
US
Launch date
2024-12-13
Launch site
AFWTR
Launch vehicle
Mass (kg)
RCS (m²)

Purposes: comms

External: N2YO · Heavens-Above · Gunter

§ Orbital elements

Epoch: 2026-05-25T03:31:18.532992Z

Period
94.10 min
Inclination
53.1583°
Eccentricity
0.0001268
Mean motion
15.30205861 rev/d
Perigee alt
474.3 km
Apogee alt
476.1 km
Semi-major
6,853.3 km
B*
4.0006e-4
RAAN
185.7321°
Arg perigee
97.1007°
Mean anomaly
263.0138°
Rev number
8,127

§ Raw data

STARLINK-324811 62320U 24239V   26145.14674228  .00011510  00000+0  40006-3 0  99952 62320  53.1583 185.7321 0001268  97.1007 263.0138 15.30205861 81270

JSON: /api/v1/satellites/62320 · /tle

For live sub-satellite position, see the globe view (requires WebGL).

§ Visibility from observer

Set your observer location to see the next 7 days of passes ≥ 10°. The values pass through the URL so the page stays shareable.

No JS? Fill the form by hand. The geolocation button needs JavaScript.